"read_dt","SO2 (ppb)","flags","PMT voltage (V)","lamp voltage (V)","lamp intensity (Hz)","internal temp (C)","react chamber temp (C)","sample flow (l/min)","pres (mmHg)","SO2 bkg (ppb)","SO2 coefficient"
2017-04-30 00:00:00,1503E-3,5C000400,-0724,0841,9014,029.4,045.5,0.217,750.2,01.17,0.508
2017-04-30 00:01:00,1453E-3,5C000410,-0724,0851,12872,029.2,045.5,0.218,750.2,01.17,0.508
2017-04-30 00:02:00,1512E-3,5C000400,-0724,0838,12160,029.1,045.5,0.218,750.2,01.17,0.508
2017-04-30 00:03:00,1449E-3,5C000400,-0724,0844,12609,029.0,045.5,0.217,750.2,01.17,0.508
2017-04-30 00:04:00,1599E-3,5C000400,-0724,0837,10942,028.9,045.5,0.218,750.2,01.17,0.508
2017-04-30 00:05:00,1634E-3,5C000400,-0724,0837,9919,028.9,045.5,0.218,750.2,01.17,0.508
2017-04-30 00:06:00,1639E-3,5C000400,-0724,0839,12479,028.8,045.5,0.218,750.2,01.17,0.508
2017-04-30 00:07:00,1590E-3,5C000400,-0724,0838,12065,028.8,045.5,0.218,750.2,01.17,0.508
2017-04-30 00:08:00,1594E-3,5C000400,-0724,0836,12133,028.8,045.5,0.218,750.2,01.17,0.508
2017-04-30 00:09:00,1621E-3,5C000400,-0724,0836,12195,028.7,045.5,0.219,750.2,01.17,0.508
2017-04-30 00:10:00,1674E-3,5C000400,-0724,0838,12218,028.6,045.5,0.219,750.2,01.17,0.508
2017-04-30 00:11:00,1704E-3,5C000400,-0724,0834,10964,028.5,045.5,0.219,750.2,01.17,0.508
2017-04-30 00:12:00,1696E-3,5C000400,-0724,0841,10047,028.5,045.5,0.219,750.2,01.17,0.508
2017-04-30 00:13:00,1638E-3,5C000400,-0724,0840,12189,028.5,045.5,0.219,750.2,01.17,0.508
2017-04-30 00:14:00,1620E-3,5C000400,-0724,0844,12706,028.5,045.5,0.219,750.2,01.17,0.508
2017-04-30 00:15:00,1689E-3,5C000400,-0724,0839,12323,028.5,045.5,0.219,750.2,01.17,0.508
2017-04-30 00:16:00,1720E-3,5C000400,-0724,0841,12235,028.4,045.5,0.219,750.2,01.17,0.508
2017-04-30 00:17:00,1603E-3,5C000400,-0724,0841,11137,028.3,045.5,0.220,750.2,01.17,0.508
2017-04-30 00:18:00,1518E-3,5C000400,-0724,0839,12204,028.2,045.5,0.219,750.3,01.17,0.508
2017-04-30 00:19:00,1498E-3,5C000400,-0724,0844,12671,028.2,045.5,0.220,750.3,01.17,0.508
2017-04-30 00:20:00,1651E-3,5C000400,-0724,0841,12439,028.3,045.5,0.220,750.2,01.17,0.508
2017-04-30 00:21:00,1679E-3,5C000400,-0724,0841,10158,028.3,045.5,0.220,750.2,01.17,0.508
2017-04-30 00:22:00,1466E-3,5C000400,-0724,0846,12482,028.2,045.5,0.220,750.2,01.17,0.508
2017-04-30 00:23:00,1579E-3,5C000400,-0724,0854,13088,028.2,045.5,0.220,750.2,01.17,0.508
2017-04-30 00:24:00,1575E-3,5C000400,-0724,0837,12198,028.2,045.5,0.220,750.2,01.17,0.508
2017-04-30 00:25:00,1634E-3,5C000400,-0724,0836,12281,028.2,045.5,0.220,750.2,01.17,0.508
2017-04-30 00:26:00,1435E-3,5C000400,-0724,0852,12810,028.2,045.5,0.220,750.2,01.17,0.508
2017-04-30 00:27:00,1505E-3,5C000400,-0724,0844,11575,028.2,045.5,0.220,750.2,01.17,0.508
2017-04-30 00:28:00,1299E-3,5C000400,-0724,0847,12783,028.1,045.5,0.220,750.2,01.17,0.508
2017-04-30 00:29:00,1598E-3,5C000400,-0724,0844,11463,028.1,045.5,0.220,750.2,01.17,0.508
2017-04-30 00:30:00,1670E-3,5C000400,-0724,0841,12517,028.0,045.5,0.220,750.2,01.17,0.508
2017-04-30 00:31:00,1607E-3,5C000400,-0724,0852,11678,028.1,045.5,0.220,750.2,01.17,0.508
2017-04-30 00:32:00,1583E-3,5C000400,-0724,0837,12512,028.0,045.5,0.220,750.2,01.17,0.508
2017-04-30 00:33:00,1371E-3,5C000400,-0724,0849,11509,028.0,045.5,0.221,750.2,01.17,0.508
2017-04-30 00:34:00,1396E-3,5C000410,-0724,0850,9251,028.0,045.5,0.221,750.2,01.17,0.508
2017-04-30 00:35:00,1384E-3,5C000400,-0724,0847,11484,028.0,045.4,0.221,750.2,01.17,0.508
2017-04-30 00:36:00,1438E-3,5C000410,-0724,0858,10710,028.0,045.4,0.221,750.2,01.17,0.508
2017-04-30 00:37:00,1333E-3,5C000400,-0724,0860,11896,028.1,045.5,0.220,750.1,01.17,0.508
2017-04-30 00:38:00,1495E-3,5C000410,-0724,0844,10368,028.1,045.5,0.221,750.1,01.17,0.508
2017-04-30 00:39:00,1552E-3,5C000400,-0724,0843,11350,028.2,045.5,0.220,750.1,01.17,0.508
2017-04-30 00:40:00,1463E-3,5C000400,-0724,0843,12464,028.3,045.5,0.221,750.1,01.17,0.508
2017-04-30 00:41:00,1449E-3,5C000400,-0724,0846,11296,028.4,045.5,0.220,750.1,01.17,0.508
2017-04-30 00:42:00,1552E-3,5C000410,-0724,0842,10325,028.5,045.5,0.220,750.1,01.17,0.508
2017-04-30 00:43:00,1512E-3,5C000400,-0724,0853,12641,028.6,045.5,0.220,750.1,01.17,0.508
2017-04-30 00:44:00,1595E-3,5C000410,-0724,0843,12805,028.7,045.5,0.220,750.1,01.17,0.508
2017-04-30 00:45:00,1421E-3,5C000400,-0724,0848,11099,028.8,045.5,0.220,750.1,01.17,0.508
2017-04-30 00:46:00,1684E-3,5C000410,-0724,0844,10214,028.9,045.5,0.220,750.1,01.17,0.508
2017-04-30 00:47:00,1567E-3,5C000400,-0724,0843,12487,029.0,045.5,0.220,750.0,01.17,0.508
2017-04-30 00:48:00,1539E-3,5C000400,-0724,0843,10259,029.1,045.5,0.220,750.1,01.17,0.508
2017-04-30 00:49:00,1501E-3,5C000400,-0724,0844,12461,029.2,045.5,0.219,750.0,01.17,0.508
2017-04-30 00:50:00,1560E-3,5C000400,-0724,0851,12722,029.3,045.5,0.219,750.0,01.17,0.508
2017-04-30 00:51:00,1663E-3,5C000400,-0724,0838,12393,029.3,045.5,0.219,750.0,01.17,0.508
2017-04-30 00:52:00,1561E-3,5C000410,-0724,0843,8865,029.4,045.5,0.219,750.0,01.17,0.508
2017-04-30 00:53:00,1658E-3,5C000400,-0724,0837,11236,029.5,045.5,0.219,750.0,01.17,0.508
2017-04-30 00:54:00,1662E-3,5C000400,-0724,0839,12472,029.5,045.5,0.219,750.0,01.17,0.508
2017-04-30 00:55:00,1528E-3,5C000400,-0724,0837,11201,029.5,045.5,0.219,750.0,01.17,0.508
2017-04-30 00:56:00,1444E-3,5C000400,-0724,0852,12988,029.4,045.5,0.218,750.0,01.17,0.508
2017-04-30 00:57:00,1692E-3,5C000400,-0724,0838,12500,029.3,045.5,0.218,750.0,01.17,0.508
2017-04-30 00:58:00,1665E-3,5C000400,-0724,0841,11458,029.1,045.5,0.218,750.0,01.17,0.508
2017-04-30 00:59:00,1558E-3,5C000400,-0724,0840,10190,029.0,045.5,0.218,750.0,01.17,0.508
2017-04-30 01:00:00,1557E-3,5C000410,-0724,0845,11722,028.8,045.5,0.218,750.0,01.17,0.508
2017-04-30 01:01:00,1608E-3,5C000400,-0724,0841,11380,028.7,045.5,0.219,750.1,01.17,0.508
2017-04-30 01:02:00,1611E-3,5C000400,-0724,0841,11354,028.6,045.5,0.219,750.1,01.17,0.508
2017-04-30 01:03:00,1516E-3,5C000400,-0724,0841,12440,028.5,045.5,0.219,750.1,01.17,0.508
2017-04-30 01:04:00,1437E-3,5C000400,-0724,0844,10072,028.4,045.5,0.219,750.1,01.17,0.508
2017-04-30 01:05:00,1567E-3,5C000400,-0724,0849,12793,028.4,045.5,0.219,750.0,01.17,0.508
2017-04-30 01:06:00,1577E-3,5C000400,-0724,0855,11735,028.4,045.5,0.219,750.0,01.17,0.508
2017-04-30 01:07:00,1623E-3,5C000400,-0724,0837,9824,028.4,045.5,0.219,750.0,01.17,0.508
2017-04-30 01:08:00,1513E-3,5C000400,-0724,0840,12356,028.3,045.5,0.219,750.0,01.17,0.508
2017-04-30 01:09:00,1680E-3,5C000400,-0724,0839,12325,028.2,045.5,0.220,750.0,01.17,0.508
2017-04-30 01:10:00,1634E-3,5C000400,-0724,0839,12239,028.2,045.5,0.220,750.0,01.17,0.508
2017-04-30 01:11:00,1723E-3,5C000410,-0724,0838,9978,028.3,045.5,0.220,750.0,01.17,0.508
2017-04-30 01:12:00,1688E-3,5C000400,-0724,0840,11260,028.2,045.5,0.220,750.0,01.17,0.508
2017-04-30 01:13:00,1635E-3,5C000400,-0724,0842,12456,028.2,045.5,0.220,750.0,01.17,0.508
2017-04-30 01:14:00,1601E-3,5C000400,-0724,0839,12314,028.1,045.5,0.220,750.0,01.17,0.508
2017-04-30 01:15:00,1544E-3,5C000400,-0724,0839,12517,028.1,045.5,0.220,750.0,01.17,0.508
2017-04-30 01:16:00,1612E-3,5C000410,-0724,0840,10096,028.1,045.5,0.220,750.0,01.17,0.508
2017-04-30 01:17:00,1683E-3,5C000400,-0724,0842,11756,028.0,045.5,0.220,750.0,01.17,0.508
2017-04-30 01:18:00,1620E-3,5C000400,-0724,0842,10044,028.0,045.5,0.221,750.0,01.17,0.508
2017-04-30 01:19:00,1585E-3,5C000400,-0724,0840,12540,028.1,045.5,0.220,750.0,01.17,0.508
2017-04-30 01:20:00,1441E-3,5C000400,-0724,0856,12817,028.0,045.5,0.221,750.1,01.17,0.508
2017-04-30 01:21:00,1408E-3,5C000400,-0724,0846,12507,028.0,045.5,0.220,750.1,01.17,0.508
2017-04-30 01:22:00,1575E-3,5C000400,-0724,0848,12576,027.9,045.5,0.221,750.1,01.17,0.508
2017-04-30 01:23:00,1570E-3,5C000400,-0724,0843,9963,027.9,045.5,0.220,750.0,01.17,0.508
2017-04-30 01:24:00,1466E-3,5C000400,-0724,0853,12666,027.9,045.5,0.221,750.0,01.17,0.508
2017-04-30 01:25:00,1525E-3,5C000400,-0724,0843,11435,027.9,045.5,0.220,750.0,01.17,0.508
2017-04-30 01:26:00,1608E-3,5C000400,-0724,0847,11555,028.0,045.4,0.221,750.0,01.17,0.508
2017-04-30 01:27:00,1624E-3,5C000400,-0724,0842,12745,028.1,045.5,0.220,750.0,01.17,0.508
2017-04-30 01:28:00,1591E-3,5C000400,-0724,0838,12728,028.2,045.5,0.221,750.0,01.17,0.508
2017-04-30 01:29:00,1610E-3,5C000400,-0724,0839,12172,028.2,045.5,0.220,750.0,01.17,0.508
2017-04-30 01:30:00,1525E-3,5C000400,-0724,0847,10200,028.2,045.5,0.221,750.0,01.17,0.508
2017-04-30 01:31:00,1691E-3,5C000400,-0724,0845,12132,028.1,045.5,0.220,750.0,01.17,0.508
2017-04-30 01:32:00,1574E-3,5C000400,-0724,0843,11414,028.0,045.5,0.221,750.0,01.17,0.508
2017-04-30 01:33:00,1567E-3,5C000400,-0724,0849,11543,028.0,045.5,0.220,750.0,01.17,0.508
2017-04-30 01:34:00,1407E-3,5C000400,-0724,0844,12478,027.9,045.4,0.221,750.0,01.17,0.508
2017-04-30 01:35:00,1625E-3,5C000400,-0724,0846,12466,027.9,045.4,0.221,750.0,01.17,0.508
2017-04-30 01:36:00,1504E-3,5C000400,-0724,0840,12507,027.9,045.5,0.221,750.0,01.17,0.508
2017-04-30 01:37:00,1623E-3,5C000410,-0724,0842,12417,027.9,045.5,0.221,750.0,01.17,0.508
2017-04-30 01:38:00,1411E-3,5C000400,-0724,0846,12214,027.9,045.5,0.221,750.0,01.17,0.508
2017-04-30 01:39:00,1592E-3,5C000400,-0724,0839,11274,027.8,045.5,0.221,750.0,01.17,0.508
2017-04-30 01:40:00,1503E-3,5C000400,-0724,0841,11512,027.8,045.4,0.221,750.0,01.17,0.508
2017-04-30 01:41:00,1471E-3,5C000410,-0724,0852,8171,027.8,045.4,0.221,750.0,01.17,0.508
2017-04-30 01:42:00,1217E-3,5C000400,-0724,0851,12729,027.8,045.4,0.221,750.0,01.17,0.508
2017-04-30 01:43:00,1570E-3,5C000400,-0724,0841,11830,027.8,045.5,0.221,749.9,01.17,0.508
2017-04-30 01:44:00,1416E-3,5C000400,-0724,0843,12570,027.8,045.5,0.221,749.9,01.17,0.508
2017-04-30 01:45:00,1555E-3,5C000410,-0724,0845,11631,027.7,045.4,0.221,749.9,01.17,0.508
2017-04-30 01:46:00,1678E-3,5C000400,-0724,0840,12736,027.7,045.4,0.221,749.9,01.17,0.508
2017-04-30 01:47:00,1432E-3,5C000400,-0724,0852,11512,027.7,045.4,0.221,749.9,01.17,0.508
2017-04-30 01:48:00,1438E-3,5C000400,-0724,0852,10341,027.7,045.5,0.221,749.9,01.17,0.508
2017-04-30 01:49:00,1588E-3,5C000400,-0724,0843,10090,027.7,045.4,0.222,749.9,01.17,0.508
2017-04-30 01:50:00,1481E-3,5C000400,-0724,0842,12207,027.7,045.4,0.221,749.9,01.17,0.508
2017-04-30 01:51:00,1568E-3,5C000400,-0724,0846,12315,027.7,045.4,0.222,749.9,01.17,0.508
2017-04-30 01:52:00,1597E-3,5C000400,-0724,0844,13013,027.7,045.4,0.221,749.9,01.17,0.508
2017-04-30 01:53:00,1457E-3,5C000400,-0724,0846,11442,027.6,045.4,0.222,749.9,01.17,0.508
2017-04-30 01:54:00,1565E-3,5C000400,-0724,0839,11577,027.7,045.5,0.221,749.8,01.17,0.508
2017-04-30 01:55:00,1450E-3,5C000400,-0724,0846,10549,027.7,045.5,0.222,749.9,01.17,0.508
2017-04-30 01:56:00,1475E-3,5C000410,-0724,0837,12383,027.7,045.5,0.221,749.8,01.17,0.508
2017-04-30 01:57:00,1665E-3,5C000400,-0724,0837,11125,027.7,045.5,0.222,749.8,01.17,0.508
2017-04-30 01:58:00,1567E-3,5C000400,-0724,0841,11454,027.6,045.4,0.222,749.8,01.17,0.508
2017-04-30 01:59:00,1470E-3,5C000400,-0724,0841,11329,027.6,045.4,0.222,749.8,01.17,0.508
2017-04-30 02:00:00,1455E-3,5C000400,-0724,0848,11514,027.6,045.4,0.222,749.8,01.17,0.508
2017-04-30 02:01:00,1709E-3,5C000400,-0724,0839,12442,027.6,045.4,0.222,749.8,01.17,0.508
2017-04-30 02:02:00,1539E-3,5C000400,-0724,0844,11360,027.6,045.4,0.221,749.9,01.17,0.508
2017-04-30 02:03:00,1562E-3,5C000400,-0724,0845,8843,027.7,045.4,0.222,749.8,01.17,0.508
2017-04-30 02:04:00,1417E-3,5C000400,-0724,0850,11533,027.7,045.4,0.221,749.8,01.17,0.508
2017-04-30 02:05:00,1526E-3,5C000400,-0724,0844,12629,027.6,045.4,0.222,749.9,01.17,0.508
2017-04-30 02:06:00,1458E-3,5C000400,-0724,0846,9933,027.6,045.4,0.221,749.9,01.17,0.508
2017-04-30 02:07:00,1506E-3,5C000410,-0724,0846,9055,027.6,045.4,0.222,749.8,01.17,0.508
2017-04-30 02:08:00,1584E-3,5C000400,-0724,0843,11568,027.6,045.4,0.221,749.8,01.17,0.508
2017-04-30 02:09:00,1455E-3,5C000400,-0724,0844,12957,027.6,045.4,0.222,749.8,01.17,0.508
2017-04-30 02:10:00,1690E-3,5C000400,-0724,0842,12780,027.6,045.5,0.222,749.8,01.17,0.508
2017-04-30 02:11:00,1649E-3,5C000400,-0724,0840,11127,027.6,045.5,0.222,749.8,01.17,0.508
2017-04-30 02:12:00,1560E-3,5C000400,-0724,0844,11240,027.5,045.5,0.222,749.8,01.17,0.508
2017-04-30 02:13:00,1330E-3,5C000400,-0724,0855,11761,027.5,045.5,0.222,749.8,01.17,0.508
2017-04-30 02:14:00,1499E-3,5C000400,-0724,0843,12454,027.5,045.5,0.222,749.8,01.17,0.508
2017-04-30 02:15:00,1673E-3,5C000400,-0724,0839,12290,027.5,045.5,0.222,749.8,01.17,0.508
2017-04-30 02:16:00,1573E-3,5C000400,-0724,0838,10950,027.5,045.5,0.222,749.8,01.17,0.508
2017-04-30 02:17:00,1672E-3,5C000400,-0724,0838,11098,027.5,045.5,0.222,749.8,01.17,0.508
2017-04-30 02:18:00,1760E-3,5C000410,-0724,0843,10072,027.6,045.5,0.222,749.8,01.17,0.508
2017-04-30 02:19:00,1470E-3,5C000400,-0724,0845,10225,027.6,045.4,0.222,749.8,01.17,0.508
2017-04-30 02:20:00,1500E-3,5C000400,-0724,0839,12310,027.5,045.4,0.222,749.8,01.17,0.508
2017-04-30 02:21:00,1674E-3,5C000410,-0724,0838,12383,027.5,045.4,0.222,749.8,01.17,0.508
2017-04-30 02:22:00,1629E-3,5C000400,-0724,0843,11372,027.5,045.4,0.222,749.8,01.17,0.508
2017-04-30 02:23:00,1583E-3,5C000400,-0724,0838,10932,027.5,045.4,0.222,749.8,01.17,0.508
2017-04-30 02:24:00,1649E-3,5C000400,-0724,0841,12458,027.5,045.5,0.222,749.8,01.17,0.508
2017-04-30 02:25:00,1509E-3,5C000400,-0724,0846,10189,027.5,045.5,0.222,749.8,01.17,0.508
2017-04-30 02:26:00,1673E-3,5C000400,-0724,0838,10991,027.5,045.4,0.222,749.8,01.17,0.508
2017-04-30 02:27:00,1511E-3,5C000400,-0724,0846,12818,027.4,045.5,0.222,749.9,01.17,0.508
2017-04-30 02:28:00,1496E-3,5C000400,-0724,0841,12283,027.4,045.4,0.222,749.9,01.17,0.508
2017-04-30 02:29:00,1570E-3,5C000410,-0724,0848,7807,027.4,045.5,0.222,749.8,01.17,0.508
2017-04-30 02:30:00,1502E-3,5C000400,-0724,0845,12451,027.4,045.5,0.222,749.9,01.17,0.508
2017-04-30 02:31:00,1603E-3,5C000400,-0724,0841,11441,027.4,045.4,0.222,749.9,01.17,0.508
2017-04-30 02:32:00,1583E-3,5C000400,-0724,0845,10287,027.4,045.4,0.222,749.8,01.17,0.508
2017-04-30 02:33:00,1584E-3,5C000400,-0724,0840,12540,027.4,045.4,0.222,749.9,01.17,0.508
2017-04-30 02:34:00,1590E-3,5C000400,-0724,0849,12751,027.4,045.4,0.222,749.9,01.17,0.508
2017-04-30 02:35:00,1566E-3,5C000400,-0724,0844,11401,027.4,045.5,0.222,749.8,01.17,0.508
2017-04-30 02:36:00,1447E-3,5C000410,-0724,0855,12003,027.4,045.5,0.222,749.8,01.17,0.508
2017-04-30 02:37:00,1640E-3,5C000400,-0724,0842,11335,027.4,045.4,0.222,749.8,01.17,0.508
2017-04-30 02:38:00,1526E-3,5C000400,-0724,0848,12735,027.4,045.4,0.222,749.8,01.17,0.508
2017-04-30 02:39:00,1528E-3,5C000400,-0724,0841,9872,027.4,045.4,0.222,749.8,01.17,0.508
2017-04-30 02:40:00,1484E-3,5C000400,-0724,0847,10240,027.4,045.4,0.222,749.8,01.17,0.508
2017-04-30 02:41:00,1505E-3,5C000400,-0724,0844,12753,027.4,045.4,0.222,749.8,01.17,0.508
2017-04-30 02:42:00,1479E-3,5C000400,-0724,0850,9071,027.4,045.4,0.222,749.8,01.17,0.508
2017-04-30 02:43:00,1423E-3,5C000400,-0724,0845,12446,027.4,045.4,0.222,749.8,01.17,0.508
2017-04-30 02:44:00,1369E-3,5C000400,-0724,0847,10273,027.4,045.4,0.222,749.8,01.17,0.508
2017-04-30 02:45:00,1346E-3,5C000400,-0724,0859,10861,027.4,045.4,0.222,749.8,01.17,0.508
2017-04-30 02:46:00,1497E-3,5C000400,-0724,0847,12717,027.4,045.5,0.222,749.8,01.17,0.508
2017-04-30 02:47:00,1475E-3,5C000410,-0724,0847,7930,027.4,045.5,0.222,749.8,01.17,0.508
2017-04-30 02:48:00,1473E-3,5C000400,-0724,0847,10303,027.4,045.5,0.222,749.8,01.17,0.508
2017-04-30 02:49:00,1536E-3,5C000410,-0724,0848,8986,027.4,045.5,0.222,749.8,01.17,0.508
2017-04-30 02:50:00,1439E-3,5C000400,-0724,0852,10417,027.3,045.4,0.222,749.8,01.17,0.508
2017-04-30 02:51:00,1410E-3,5C000400,-0724,0849,11569,027.4,045.4,0.222,749.8,01.17,0.508
2017-04-30 02:52:00,1635E-3,5C000400,-0724,0842,11055,027.3,045.5,0.222,749.8,01.17,0.508
2017-04-30 02:53:00,1459E-3,5C000400,-0724,0850,10453,027.3,045.4,0.222,749.8,01.17,0.508
2017-04-30 02:54:00,1415E-3,5C000400,-0724,0861,11868,027.4,045.4,0.222,749.8,01.17,0.508
2017-04-30 02:55:00,1496E-3,5C000400,-0724,0854,6644,027.3,045.4,0.222,749.8,01.17,0.508
2017-04-30 02:56:00,1493E-3,5C000400,-0724,0843,11465,027.3,045.4,0.222,749.8,01.17,0.508
2017-04-30 02:57:00,1524E-3,5C000400,-0724,0854,11679,027.3,045.5,0.222,749.8,01.17,0.508
2017-04-30 02:58:00,1634E-3,5C000400,-0724,0837,12350,027.3,045.4,0.222,749.8,01.17,0.508
2017-04-30 02:59:00,1606E-3,5C000400,-0724,0843,8871,027.3,045.4,0.222,749.8,01.17,0.508
2017-04-30 03:00:00,1458E-3,5C000410,-0724,0846,11494,027.3,045.4,0.223,749.7,01.17,0.508
2017-04-30 03:01:00,1489E-3,5C000400,-0724,0844,11259,027.3,045.5,0.222,749.7,01.17,0.508
2017-04-30 03:02:00,1571E-3,5C000400,-0724,0840,12388,027.3,045.5,0.223,749.7,01.17,0.508
2017-04-30 03:03:00,1504E-3,5C000400,-0724,0840,12423,027.3,045.4,0.222,749.7,01.17,0.508
2017-04-30 03:04:00,1602E-3,5C000400,-0724,0841,11266,027.3,045.4,0.223,749.7,01.17,0.508
2017-04-30 03:05:00,1401E-3,5C000400,-0724,0853,11828,027.3,045.4,0.222,749.7,01.17,0.508
2017-04-30 03:06:00,1511E-3,5C000400,-0724,0845,11375,027.3,045.5,0.222,749.7,01.17,0.508
2017-04-30 03:07:00,1476E-3,5C000400,-0724,0851,12849,027.3,045.4,0.223,749.7,01.17,0.508
2017-04-30 03:08:00,1419E-3,5C000400,-0724,0860,11834,027.3,045.5,0.222,749.7,01.17,0.508
2017-04-30 03:09:00,1481E-3,5C000400,-0724,0859,13183,027.3,045.4,0.223,749.7,01.17,0.508
2017-04-30 03:10:00,1427E-3,5C000400,-0724,0849,11291,027.3,045.4,0.223,749.6,01.17,0.508
2017-04-30 03:11:00,1556E-3,5C000400,-0724,0848,12827,027.2,045.4,0.223,749.6,01.17,0.508
2017-04-30 03:12:00,1492E-3,5C000400,-0724,0847,11426,027.2,045.5,0.223,749.6,01.17,0.508
2017-04-30 03:13:00,1528E-3,5C000400,-0724,0843,12452,027.2,045.4,0.223,749.6,01.17,0.508
2017-04-30 03:14:00,1495E-3,5C000400,-0724,0842,12315,027.2,045.4,0.223,749.6,01.17,0.508
2017-04-30 03:15:00,1414E-3,5C000400,-0724,0847,10325,027.2,045.4,0.223,749.6,01.17,0.508
2017-04-30 03:16:00,1516E-3,5C000400,-0724,0845,12711,027.2,045.4,0.222,749.6,01.17,0.508
2017-04-30 03:17:00,1605E-3,5C000400,-0724,0846,10268,027.2,045.4,0.223,749.6,01.17,0.508
2017-04-30 03:18:00,1684E-3,5C000400,-0724,0841,11311,027.2,045.4,0.222,749.5,01.17,0.508
2017-04-30 03:19:00,1547E-3,5C000410,-0724,0849,11621,027.2,045.4,0.223,749.5,01.17,0.508
2017-04-30 03:20:00,1575E-3,5C000400,-0724,0845,12321,027.2,045.4,0.222,749.5,01.17,0.508
2017-04-30 03:21:00,1555E-3,5C000400,-0724,0840,12325,027.2,045.4,0.223,749.5,01.17,0.508
2017-04-30 03:22:00,1521E-3,5C000400,-0724,0842,12408,027.3,045.4,0.222,749.5,01.17,0.508
2017-04-30 03:23:00,1583E-3,5C000400,-0724,0837,12268,027.2,045.4,0.223,749.6,01.17,0.508
2017-04-30 03:24:00,1670E-3,5C000400,-0724,0837,12275,027.2,045.4,0.222,749.5,01.17,0.508
2017-04-30 03:25:00,1795E-3,5C000400,-0724,0835,12145,027.1,045.4,0.223,749.6,01.17,0.508
2017-04-30 03:26:00,1740E-3,5C000400,-0724,0835,12033,027.2,045.4,0.223,749.6,01.17,0.508
2017-04-30 03:27:00,1739E-3,5C000400,-0724,0836,12157,027.2,045.4,0.223,749.6,01.17,0.508
2017-04-30 03:28:00,1758E-3,5C000400,-0724,0835,12108,027.1,045.4,0.223,749.6,01.17,0.508
2017-04-30 03:29:00,1775E-3,5C000400,-0724,0834,12098,027.1,045.4,0.222,749.5,01.17,0.508
2017-04-30 03:30:00,1543E-3,5C000400,-0724,0839,12230,027.1,045.4,0.223,749.5,01.17,0.508
2017-04-30 03:31:00,1652E-3,5C000400,-0724,0834,11050,027.1,045.4,0.222,749.5,01.17,0.508
2017-04-30 03:32:00,1700E-3,5C000400,-0724,0835,12197,027.1,045.4,0.223,749.5,01.17,0.508
2017-04-30 03:33:00,1823E-3,5C000400,-0724,0835,12209,027.1,045.4,0.223,749.5,01.17,0.508
2017-04-30 03:34:00,1726E-3,5C000400,-0724,0836,12113,027.1,045.4,0.223,749.5,01.17,0.508
2017-04-30 03:35:00,1672E-3,5C000400,-0724,0837,12196,027.1,045.4,0.223,749.5,01.17,0.508
2017-04-30 03:36:00,1567E-3,5C000400,-0724,0835,12022,027.1,045.4,0.223,749.5,01.17,0.508
2017-04-30 03:37:00,1784E-3,5C000400,-0724,0835,10965,027.1,045.4,0.223,749.5,01.17,0.508
2017-04-30 03:38:00,1730E-3,5C000400,-0724,0835,12187,027.0,045.4,0.223,749.5,01.17,0.508
2017-04-30 03:39:00,1773E-3,5C000400,-0724,0835,11999,027.0,045.4,0.223,749.5,01.17,0.508
2017-04-30 03:40:00,1799E-3,5C000400,-0724,0835,12139,027.0,045.4,0.223,749.5,01.17,0.508
2017-04-30 03:41:00,1703E-3,5C000400,-0724,0836,12193,027.1,045.4,0.223,749.5,01.17,0.508
2017-04-30 03:42:00,1645E-3,5C000400,-0724,0835,12174,027.1,045.4,0.223,749.5,01.17,0.508
2017-04-30 03:43:00,1747E-3,5C000400,-0724,0836,12086,027.1,045.4,0.223,749.5,01.17,0.508
2017-04-30 03:44:00,1769E-3,5C000400,-0724,0836,12199,027.1,045.4,0.223,749.5,01.17,0.508
2017-04-30 03:45:00,1735E-3,5C000400,-0724,0835,12249,027.1,045.4,0.223,749.5,01.17,0.508
2017-04-30 03:46:00,1603E-3,5C000400,-0724,0835,12106,027.1,045.4,0.223,749.5,01.17,0.508
2017-04-30 03:47:00,1667E-3,5C000400,-0724,0834,12047,027.1,045.4,0.223,749.5,01.17,0.508
2017-04-30 03:48:00,1620E-3,5C000400,-0724,0841,12616,027.0,045.4,0.223,749.5,01.17,0.508
2017-04-30 03:49:00,1637E-3,5C000400,-0724,0840,11228,027.0,045.4,0.223,749.6,01.17,0.508
2017-04-30 03:50:00,1698E-3,5C000400,-0724,0838,11059,027.0,045.4,0.223,749.6,01.17,0.508
2017-04-30 03:51:00,1492E-3,5C000400,-0724,0844,10092,027.0,045.4,0.223,749.6,01.17,0.508
2017-04-30 03:52:00,1562E-3,5C000400,-0724,0838,9955,027.0,045.4,0.223,749.5,01.17,0.508
2017-04-30 03:53:00,1519E-3,5C000400,-0724,0846,12686,027.0,045.4,0.223,749.6,01.17,0.508
2017-04-30 03:54:00,1495E-3,5C000400,-0724,0848,12601,027.0,045.4,0.223,749.6,01.17,0.508
2017-04-30 03:55:00,1456E-3,5C000400,-0724,0841,11227,027.0,045.4,0.223,749.6,01.17,0.508
2017-04-30 03:56:00,1581E-3,5C000400,-0724,0839,11390,027.0,045.4,0.223,749.6,01.17,0.508
2017-04-30 03:57:00,1643E-3,5C000400,-0724,0840,11132,027.0,045.4,0.223,749.6,01.17,0.508
2017-04-30 03:58:00,1510E-3,5C000400,-0724,0841,12557,027.0,045.4,0.223,749.6,01.17,0.508
2017-04-30 03:59:00,1498E-3,5C000400,-0724,0843,12465,027.0,045.4,0.223,749.5,01.17,0.508
2017-04-30 04:00:00,1616E-3,5C000400,-0724,0834,12067,026.9,045.4,0.223,749.5,01.17,0.508
2017-04-30 04:01:00,1774E-3,5C000400,-0724,0837,12259,026.9,045.4,0.223,749.5,01.17,0.508
2017-04-30 04:02:00,1713E-3,5C000400,-0724,0840,12458,026.9,045.4,0.223,749.5,01.17,0.508
2017-04-30 04:03:00,1676E-3,5C000400,-0724,0838,11148,026.9,045.4,0.223,749.5,01.17,0.508
2017-04-30 04:04:00,1576E-3,5C000400,-0724,0839,10987,026.9,045.4,0.223,749.5,01.17,0.508
2017-04-30 04:05:00,1590E-3,5C000400,-0724,0837,11180,026.9,045.4,0.223,749.5,01.17,0.508
2017-04-30 04:06:00,1701E-3,5C000410,-0724,0843,9921,026.9,045.4,0.223,749.5,01.17,0.508
2017-04-30 04:07:00,1589E-3,5C000400,-0724,0843,12563,026.8,045.4,0.223,749.5,01.17,0.508
2017-04-30 04:08:00,1596E-3,5C000400,-0724,0841,12418,026.9,045.4,0.223,749.5,01.17,0.508
2017-04-30 04:09:00,1631E-3,5C000400,-0724,0839,11179,026.9,045.4,0.223,749.4,01.17,0.508
2017-04-30 04:10:00,1527E-3,5C000400,-0724,0839,12218,026.9,045.4,0.224,749.4,01.17,0.508
2017-04-30 04:11:00,1697E-3,5C000410,-0724,0841,12346,026.9,045.4,0.224,749.4,01.17,0.508
2017-04-30 04:12:00,1564E-3,5C000400,-0724,0840,9946,026.9,045.4,0.224,749.4,01.17,0.508
2017-04-30 04:13:00,1471E-3,5C000400,-0724,0837,11017,026.9,045.4,0.224,749.4,01.17,0.508
2017-04-30 04:14:00,1608E-3,5C000400,-0724,0842,9830,026.9,045.4,0.223,749.4,01.17,0.508
2017-04-30 04:15:00,1505E-3,5C000410,-0724,0850,10514,026.8,045.4,0.223,749.4,01.17,0.508
2017-04-30 04:16:00,1532E-3,5C000400,-0724,0854,12699,026.9,045.4,0.223,749.4,01.17,0.508
2017-04-30 04:17:00,1584E-3,5C000400,-0724,0861,11808,026.9,045.4,0.223,749.4,01.17,0.508
2017-04-30 04:18:00,1318E-3,5C000400,-0724,0855,10309,026.9,045.4,0.224,749.4,01.17,0.508
2017-04-30 04:19:00,1428E-3,5C000400,-0724,0859,10627,026.8,045.4,0.223,749.4,01.17,0.508
2017-04-30 04:20:00,1401E-3,5C000400,-0724,0848,12667,026.8,045.4,0.224,749.4,01.17,0.508